Location: Vancouver
(49.2500°N, 123.1330°W)
Time: 00:57:46
(UTC-08:00)

YAOGAN 6 - Visible Passes

Search period start: 25 February 2017 00:00
Search period end: 07 March 2017 00:00
Orbit: 469 x 509 km, 97.2° (Epoch: 24 February)

Date Brightness Start Highest point End Pass type
(mag) Time Alt. Az. Time Alt. Az. Time Alt. Az.
25 Feb 5.1 19:58:58 12° NNE 19:58:58 12° NNE 19:59:15 10° N visible
26 Feb 5.1 19:35:42 10° NNE 19:35:42 10° NNE 19:35:43 10° NNE visible
26 Feb 5.8 21:10:09 11° NNW 21:10:09 11° NNW 21:10:16 10° NNW visible
27 Feb 5.3 20:46:54 14° NNW 20:46:54 14° NNW 20:47:28 10° NNW visible
28 Feb 4.9 20:23:38 16° N 20:23:38 16° N 20:24:29 10° N visible
01 Mar 4.8 20:00:22 16° NNE 20:00:22 16° NNE 20:01:17 10° N visible
02 Mar 4.8 19:37:06 13° NNE 19:37:06 13° NNE 19:37:49 10° NNE visible
02 Mar 5.5 21:11:33 15° NNW 21:11:33 15° NNW 21:12:15 10° NNW visible
03 Mar 4.9 20:48:17 19° NNW 20:48:17 19° NNW 20:49:27 10° NNW visible
04 Mar 4.5 20:25:01 22° N 20:25:01 22° N 20:26:29 10° N visible
05 Mar 4.4 20:01:44 20° NNE 20:01:44 20° NNE 20:03:19 10° N visible
05 Mar 5.8 21:36:12 13° NW 21:36:12 13° NW 21:36:43 10° NW visible
06 Mar 4.6 19:38:28 16° NE 19:38:28 16° NE 19:39:53 10° NNE visible
06 Mar 5.2 21:12:55 19° NW 21:12:55 19° NW 21:14:11 10° NNW visible
